Retour au catalogue

DELTA 1 DEB

ActifSSO
NORAD 7060·DEBRIS·🇺🇸 United States

Lancé Nov 6, 1973 depuis Vandenberg Space Force Base

Loading…

Prochains Passages (prochaines 24 heures)

TLE

FraisSource: Space-Track

Époque: Sep 14, 2026, 00:26 UTC

1 07060U 73086BC  26257.01827765 -.00000010  00000-0  25396-3 0  9995
2 07060 102.1390 281.1912 0022990 301.3252  85.7321 12.44947988400357

Suivez DELTA 1 DEB en temps réel avec AllMySat

Download on the App Store